Regional Weather Roundup
Issued by NWS Jackson, KY

Home | Current Version | Previous Version | Text Only | Print | Product List | Glossary Off
Versions: 1 2 3 4 5 6 7 8 9 10 11 12 13 14 15 16 17 18 19 20 21 22 23 24 25 26 27 28 29 30 31 32 33 34 35 36 37 38 39 40 41 42 43 44 45 46 47 48 49 50

000
ASUS43 KJKL 202310
RWRJKL

EAST KENTUCKY HOURLY WEATHER ROUNDUP
NATIONAL WEATHER SERVICE JACKSON KY
700 PM EDT MON APR 20 2015

NOTE: "FAIR" INDICATES FEW OR NO CLOUDS BELOW 12,000 FEET WITH
NO SIGNIFICANT WEATHER AND/OR OBSTRUCTIONS TO VISIBILITY.

* THESE REPORTS ARE NOT UNDER NWS QUALITY CONTROL AND MAY NOT
  REPORT WEATHER SUCH AS PRECIPITATION AND FOG.

KYZ079-080-083-085-087-088-110-112-115-119-120-210000
...EASTERN KENTUCKY...

CITY           SKY/WX    TMP DP  RH WIND       PRES   REMARKS
JACKSON        LGT RAIN  56  52  86 VRB5      29.68R
LONDON         PTSUNNY   59  48  67 W22G31    29.69S
SOMERSET*      LGT RAIN  50  46  87 W8        29.74R
MONTICELLO*    CLOUDY    54  51  89 SW8       29.77R
MIDDLESBORO*   MOSUNNY   61  52  71 NW3       29.69R
HARLAN APT*    CLOUDY    55  50  82 NW9       29.70R
HAZARD APT*    RAIN      55  50  82 SW13G20   29.69
BLACK MTN*       N/A     48  46  93 SW2         N/A
PIKEVILLE APT* CLOUDY    59  48  67 W12G29    29.65R
BIG SANDY*     RAIN      58  51  77 W17G29    29.64R
$$

KYZ035-036-041-042-044-050-067-078-099-210000
...CENTRAL KENTUCKY...

CITY           SKY/WX    TMP DP  RH WIND       PRES   REMARKS
MT STERLING*   CLOUDY    52  50  93 W9        29.69S
FLEMING/MASON* CLOUDY    54  46  76 W12       29.67R
DANVILLE*      CLOUDY    54  48  82 W8        29.71R
RICHMOND*      CLOUDY    52  46  82 W12       29.70R
LEXINGTON      CLOUDY    57  44  62 W13       29.68R
FRANKFORT      CLOUDY    57  40  52 W12       29.67R
$$

KYZ091>093-OHZ055-061-077-WVZ005-015-034-035-042-210000
...SOUTHERN OHIO/WEST VIRGINIA...

CITY           SKY/WX    TMP DP  RH WIND       PRES   REMARKS
COVINGTON      CLOUDY    55  37  50 W24G35    29.66R
COLUMBUS       CLOUDY    56  41  57 W17G24    29.58R
DAYTON         PTSUNNY   54  39  57 W21G29    29.62R
WILMINGTON     CLOUDY    55  40  56 W17G24    29.61R
HUNTINGTON     LGT RAIN  59  50  72 W12G21    29.62R
CHARLESTON     TSTM      63  51  65 W12       29.58R
PINEVILLE*     CLOUDY    70  49  46 MISG      29.64R
BECKLEY        MOSUNNY   66  42  41 W12       29.59R
BLUEFIELD      MOSUNNY   70  41  34 W18G30    29.61S
$$

VAZ002-007-008-TNZ017-027-036-066-071-210000
...SOUTHWEST VIRGINIA/EAST TENNESSEE...

CITY           SKY/WX    TMP DP  RH WIND       PRES   REMARKS
WISE*          PTSUNNY   63  37  39 SW17G31   29.65S
JONESVILLE*    LGT RAIN  57  54  88 W12       29.70R
ABINGDON*      MOSUNNY   68  45  42 W20G30    29.63R
BRISTOL        PTSUNNY   69  46  43 SW23G30   29.63R
KNOXVILLE      PTSUNNY   66  48  52 W17       29.69R
OAK RIDGE      PTSUNNY   67  44  43 SW10G18   29.71R
CROSSVILLE     LGT RAIN  54  49  83 W15G25    29.77R
NASHVILLE      MOSUNNY   61  42  49 W10G18    29.78R
$$

...KEY TO REMARKS...
VSB - VISIBILITY IN MILES
WCI - WIND CHILL INDEX
HX  - HEAT INDEX

$$



USA.gov is the U.S. government's official web portal to all federal, state and local government web resources and services.